(153068) = 2000 QE201 = 2000 SZ190

Discovered at Socorro on 2000-08-29 by LINEAR.

Orbit

Orbit type: Main Belt

Note: WebGL enabled browser required.

epoch2024-03-31.0
epoch JD2460400.5
perihelion date2025-07-24.22467
perihelion JD2460880.72467
argument of perihelion (°)280.69456
ascending node (°)56.71745
inclination (°)3.55421
eccentricity0.2208894
perihelion distance (AU)2.0128967
Tisserand w.r.t. Jupiter3.4
ΔV w.r.t. Earth (km/sec)9.0
semimajor axis (AU)2.5835827
mean anomaly (°)246.02364
mean daily motion (°/day)0.23733970
aphelion distance (AU)3.154
period (years)4.15
P-vector [x]0.92171078
P-vector [y]-0.32722381
P-vector [z]-0.20826381
Q-vector [x]0.38440012
Q-vector [y]0.84234689
Q-vector [z]0.37774100
absolute magnitude16.7
phase slope0.15
uncertainty0
referenceMPEC 2024-C24
observations used486
oppositions15
arc length (days)8191
first opposition used2000
last opposition used2023
residual rms (arc-secs)0.73
perturbers coarse indicatorM-v
perturbers precise indicator003Ek
first observation date used2000-08-29.0
last observation date used2023-02-01.0
computer nameMPCLINUX
JD of orbit computation2456670.739063
perihelion JD uncertainty (days)8.3326E-05
argument of perihelion uncertainty (°)1.1193E-04
ascending node uncertainty (°)1.1071E-04
inclination uncertainty (°)6.3068E-06
eccentricity uncertainty 7.2965E-08
perihelion distance uncertainty (AU)1.8055E-07
Minimum Orbit Intersection Distances (in AU)
for orbit epoch: 2460400.5, reference: E2024-G51
Mercury1.61342
Venus1.28517
Earth1.0073
Mars0.63336
Jupiter2.23168
Saturn6.08971
Uranus15.2922
Neptune27.2092

Observations

499 total observations over interval: 2000 08 29.33960 – 2023 02 01.301142
These data are available for download (format description).

Date (UT) J2000 RA J2000 Dec Magn Location Ref
2000 08 29.33960 23 09 52.19 -12 52 05.8 18.8   704 – Lincoln Laboratory ETS, New Mexico MPS 18376
2000 08 29.35300 23 09 51.51 -12 52 08.9 18.8   704 – Lincoln Laboratory ETS, New Mexico MPS 18376
2000 08 29.37989 23 09 50.17 -12 52 16.8 19.0   704 – Lincoln Laboratory ETS, New Mexico MPS 18376
2000 09 05.26728 23 04 18.89 -13 22 06.7 18.5   704 – Lincoln Laboratory ETS, New Mexico MPS 18376
2000 09 05.28052 23 04 18.09 -13 22 10.1 18.6   704 – Lincoln Laboratory ETS, New Mexico MPS 18376
2000 09 05.29381 23 04 17.38 -13 22 12.6 18.3   704 – Lincoln Laboratory ETS, New Mexico MPS 18376
2000 09 05.30722 23 04 16.74 -13 22 16.4 18.9   704 – Lincoln Laboratory ETS, New Mexico MPS 18376
2000 09 05.32040 23 04 16.01 -13 22 19.0 18.9   704 – Lincoln Laboratory ETS, New Mexico MPS 18376
2000 09 24.18687 22 50 16.53 -14 09 28.8 18.4 R 699 – Lowell Observatory-LONEOS MPS 30090
2000 09 24.18994 22 50 16.45 -14 09 28.5 18.5   704 – Lincoln Laboratory ETS, New Mexico MPS 20111
2000 09 24.20600 22 50 15.77 -14 09 29.5 19.1   704 – Lincoln Laboratory ETS, New Mexico MPS 20111
2000 09 24.21002 22 50 15.69 -14 09 30.1   699 – Lowell Observatory-LONEOS MPS 30090
2000 09 24.22128 22 50 15.22 -14 09 30.6 19.1   704 – Lincoln Laboratory ETS, New Mexico MPS 20111
2000 09 24.23329 22 50 14.74 -14 09 31.4   699 – Lowell Observatory-LONEOS MPS 30090
2000 09 24.23749 22 50 14.68 -14 09 32.3 19.6   704 – Lincoln Laboratory ETS, New Mexico MPS 20111
2000 09 24.25340 22 50 14.03 -14 09 32.2 18.7   704 – Lincoln Laboratory ETS, New Mexico MPS 20111
2000 09 24.25645 22 50 13.91 -14 09 31.6   699 – Lowell Observatory-LONEOS MPS 30090
2000 09 25.35866 22 49 36.02 -14 10 03.1 20.6   608 – Haleakala-AMOS MPS 20111
2000 09 25.37009 22 49 35.62 -14 10 03.0 19.9   608 – Haleakala-AMOS MPS 20111
2000 09 25.38160 22 49 35.21 -14 10 04.6 20.6   608 – Haleakala-AMOS MPS 20111
2000 10 02.20862 22 46 22.39 -14 08 16.4 18.8   704 – Lincoln Laboratory ETS, New Mexico MPS 20111
2000 10 02.24067 22 46 21.59 -14 08 14.6 18.4   704 – Lincoln Laboratory ETS, New Mexico MPS 20111
2000 10 02.25580 22 46 21.20 -14 08 12.9 18.7   704 – Lincoln Laboratory ETS, New Mexico MPS 20111
2002 01 22.35463 07 54 39.78 +25 33 17.0 21.0 V 691 – Steward Observatory, Kitt Peak-Spacewatch MPS 110688
2002 01 22.37838 07 54 38.28 +25 33 20.9 21.0 V 691 – Steward Observatory, Kitt Peak-Spacewatch MPS 110688
2002 01 22.40247 07 54 36.73 +25 33 25.4 20.8 V 691 – Steward Observatory, Kitt Peak-Spacewatch MPS 110688
2004 07 09.38470 21 00 53.94 -23 08 22.0 18.4 R 699 – Lowell Observatory-LONEOS MPS 110688
2004 07 09.39689 21 00 53.62 -23 08 24.2   699 – Lowell Observatory-LONEOS MPS 110688
2004 07 09.40907 21 00 53.11 -23 08 29.0   699 – Lowell Observatory-LONEOS MPS 110688
2004 07 09.42124 21 00 52.76 -23 08 33.5   699 – Lowell Observatory-LONEOS MPS 110688
2004 07 09.62242 21 00 46.87 -23 09 22.8 18.4 R E12 – Siding Spring Survey MPS 110248
2004 07 09.63404 21 00 46.53 -23 09 26.3 18.4 R E12 – Siding Spring Survey MPS 110248
2004 07 09.64556 21 00 46.21 -23 09 30.5 19.0 R E12 – Siding Spring Survey MPS 110248
2004 07 09.68771 21 00 44.79 -23 09 41.6 18.2 R E12 – Siding Spring Survey MPS 110248
2004 07 11.23898 20 59 56.34 -23 17 20.6 18.9   704 – Lincoln Laboratory ETS, New Mexico MPS 110248
2004 07 11.24948 20 59 55.89 -23 17 24.2 19.2   704 – Lincoln Laboratory ETS, New Mexico MPS 110248
2004 07 11.26012 20 59 55.56 -23 17 27.8 19.2   704 – Lincoln Laboratory ETS, New Mexico MPS 110248
2004 07 11.27070 20 59 55.18 -23 17 30.3 19.2   704 – Lincoln Laboratory ETS, New Mexico MPS 110248
2004 07 11.28205 20 59 54.80 -23 17 34.3 19.2   704 – Lincoln Laboratory ETS, New Mexico MPS 110248
2004 07 16.33955 20 56 47.79 -23 42 50.0 19.6   704 – Lincoln Laboratory ETS, New Mexico MPS 110248
2004 07 16.35017 20 56 47.33 -23 42 53.0 19.6   704 – Lincoln Laboratory ETS, New Mexico MPS 110248
2004 07 16.36090 20 56 46.83 -23 42 55.1 19.6   704 – Lincoln Laboratory ETS, New Mexico MPS 110248
2004 08 07.56049 20 38 23.62 -25 22 17.3 17.8 R E12 – Siding Spring Survey MPS 110804
2004 08 07.56900 20 38 23.12 -25 22 19.2 18.2 R E12 – Siding Spring Survey MPS 110804
2004 08 07.57760 20 38 22.68 -25 22 20.9 18.2 R E12 – Siding Spring Survey MPS 110804
2004 08 07.58619 20 38 22.16 -25 22 22.5 18.3 R E12 – Siding Spring Survey MPS 110804
2004 08 08.25069 20 37 48.09 -25 24 41.0 19.0   704 – Lincoln Laboratory ETS, New Mexico MPS 110972
2004 08 08.26005 20 37 47.63 -25 24 42.6 19.3   704 – Lincoln Laboratory ETS, New Mexico MPS 110972
2004 08 08.26942 20 37 47.07 -25 24 44.6 19.0   704 – Lincoln Laboratory ETS, New Mexico MPS 110972
2004 08 11.23195 20 35 18.70 -25 33 31.5 19.3   704 – Lincoln Laboratory ETS, New Mexico MPS 110972
2004 08 11.24207 20 35 18.14 -25 33 33.3 18.9   704 – Lincoln Laboratory ETS, New Mexico MPS 110972
2004 08 11.25206 20 35 17.63 -25 33 34.3 19.0   704 – Lincoln Laboratory ETS, New Mexico MPS 110972
2004 08 11.26207 20 35 17.07 -25 33 36.1 18.8   704 – Lincoln Laboratory ETS, New Mexico MPS 110972
2004 08 22.42852 20 27 24.82 -25 52 59.5 18.5 R E12 – Siding Spring Survey MPS 112092
2004 08 22.43973 20 27 24.41 -25 53 00.3 17.4 R E12 – Siding Spring Survey MPS 112092
2004 08 22.45095 20 27 24.00 -25 53 00.4 18.0 R E12 – Siding Spring Survey MPS 112092
2004 08 22.46218 20 27 23.60 -25 53 00.7 17.9 R E12 – Siding Spring Survey MPS 112092
2004 08 23.21516 20 26 58.36 -25 53 40.6 18.4 R 699 – Lowell Observatory-LONEOS MPS 112092
2004 08 23.22980 20 26 57.90 -25 53 40.7   699 – Lowell Observatory-LONEOS MPS 112093
2004 08 23.24445 20 26 57.37 -25 53 40.9   699 – Lowell Observatory-LONEOS MPS 112093
2004 08 23.25910 20 26 56.79 -25 53 41.0   699 – Lowell Observatory-LONEOS MPS 112093
2005 12 24.28589 07 18 14.93 +26 05 58.1   691 – Steward Observatory, Kitt Peak-Spacewatch MPS 156372
2005 12 24.30327 07 18 13.85 +26 06 01.9   691 – Steward Observatory, Kitt Peak-Spacewatch MPS 156372
2005 12 24.32408 07 18 12.54 +26 06 05.6   691 – Steward Observatory, Kitt Peak-Spacewatch MPS 156372
2006 01 05.22000 07 05 28.77 +26 38 07.2 20.3 V 691 – Steward Observatory, Kitt Peak-Spacewatch MPS 157555
2006 01 05.23742 07 05 27.60 +26 38 09.5 20.4 V 691 – Steward Observatory, Kitt Peak-Spacewatch MPS 157555
2006 01 05.25821 07 05 26.20 +26 38 12.5 20.3 V 691 – Steward Observatory, Kitt Peak-Spacewatch MPS 157555
2007 02 26.29842 12 09 32.94 +03 55 52.8 21.5 V G96 – Mt. Lemmon Survey MPS 201417
2007 02 26.30716 12 09 32.58 +03 55 55.4 21.4 V G96 – Mt. Lemmon Survey MPS 201417
2007 02 26.31590 12 09 32.22 +03 55 58.1 21.4 V G96 – Mt. Lemmon Survey MPS 201417
2007 02 26.32458 12 09 31.82 +03 56 00.3 21.7 V G96 – Mt. Lemmon Survey MPS 201417
2007 03 12.19889 11 58 46.21 +05 08 09.0 21.4 V 691 – Steward Observatory, Kitt Peak-Spacewatch MPS 202869
2007 03 12.21656 11 58 45.33 +05 08 15.1 21.6 V 691 – Steward Observatory, Kitt Peak-Spacewatch MPS 202869
2007 03 12.23423 11 58 44.39 +05 08 20.6 21.1 V 691 – Steward Observatory, Kitt Peak-Spacewatch MPS 202869
2007 03 12.32197 11 58 39.82 +05 08 48.7 20.8 V G96 – Mt. Lemmon Survey MPS 202869
2007 03 12.33133 11 58 39.28 +05 08 51.4 20.8 V G96 – Mt. Lemmon Survey MPS 202869
2007 03 12.34061 11 58 38.85 +05 08 54.4 20.9 V G96 – Mt. Lemmon Survey MPS 202869
2007 03 12.34999 11 58 38.31 +05 08 57.8 20.8 V G96 – Mt. Lemmon Survey MPS 202869
2007 03 16.20309 11 55 19.96 +05 29 32.0 21.0 V 691 – Steward Observatory, Kitt Peak-Spacewatch MPS 202869
2007 03 16.22080 11 55 19.01 +05 29 37.3 21.0 V 691 – Steward Observatory, Kitt Peak-Spacewatch MPS 202869
2007 03 16.23850 11 55 18.11 +05 29 42.9 20.9 V 691 – Steward Observatory, Kitt Peak-Spacewatch MPS 202869
2011 03 14.23293 11 09 43.81 +10 40 35.9 20.6 V G96 – Mt. Lemmon Survey MPS 375249
2011 03 14.24030 11 09 43.45 +10 40 38.3 20.7 V G96 – Mt. Lemmon Survey MPS 375249
2011 03 14.24779 11 09 43.02 +10 40 40.7 20.7 V G96 – Mt. Lemmon Survey MPS 375249
2011 03 14.25522 11 09 42.66 +10 40 42.6 20.3 V G96 – Mt. Lemmon Survey MPS 375249
2012 06 20.27769 16 36 23.60 -24 20 48.3 20.3 R 926 – Tenagra II Observatory, Nogales MPS 427681
2012 06 20.28923 16 36 22.92 -24 20 49.7 19.8 R 926 – Tenagra II Observatory, Nogales MPS 427681
